Hourly Data Report for October 19, 2019

All times are specified in Local Standard Time (LST). Add 1 hour to adjust for Daylight Saving Time where and when it is observed.

CORAL HARBOUR A
NUNAVUT
Current Station Operator: NAVCAN

64°11'36.000" N
83°21'34.000" W
62.20 m
2301002
71915
YZS

Download Data

Hourly Data (October 2019)
Hourly Data Report for October 19, 2019
TIME Temp Definition
°C
Dew Point Definition
°C
Rel Hum Definition
%
Wind Dir Definition
10's deg

Wind Spd Definition
km/h
Visibility Definition
km
Stn Press Definition
kPa
Hmdx Definition


Wind Chill Definition


Weather Definition


00:00 -1.0 -3.8 81 14 25 24.1 101.02   -7 Snow
01:00 -1.2 -3.4 85 15 33 19.3 101.00   -8 Snow
02:00 -1.5 -4.2 82 15 34 19.3 100.97   -9 Snow
03:00 -1.3 -3.8 83 14 29 24.1 100.92   -8 Snow
04:00 -1.3 -3.6 84 13 33 24.1 100.85   -8 Snow
05:00 -1.1 -3.3 85 13 34 24.1 100.81   -8 Snow
06:00
07:00 -0.9 -2.5 89 13 34 19.3 100.71   -8 Snow
08:00 -0.9 -1.9 93 13 35 4.8 100.64   -8 Snow
09:00 -0.5 -1.0 96 13 35 6.4 100.58   -8 Snow,Blowing Snow
10:00 -0.1 -0.6 97 14 37 9.7 100.55   -7 Snow,Blowing Snow
11:00 0.0 -0.3 98 15 36 3.2 100.50   -7 Snow,Blowing Snow
12:00 0.2 -0.1 97 16 43 9.7 100.48     Rain,Snow
13:00 0.3 -0.2 97 16 41 6.4 100.45     Drizzle
14:00 0.3 -0.1 97 14 32 6.4 100.40     Drizzle,Snow
15:00 0.2 -0.2 98 14 29 4.8 100.38     Drizzle,Fog
16:00 0.1 -0.2 98 14 33 6.4 100.33     Snow
17:00 0.0 -0.2 98 13 37 12.9 100.31   -7 Freezing Drizzle
18:00 -0.1 -0.4 98 14 38 4.8 100.27   -7 Snow
19:00 -0.1 -0.4 98 13 36 6.4 100.25   -7 Snow
20:00 0.0 -0.3 98 13 34 6.4 100.21   -7 Snow
21:00 0.0 -0.4 97 14 38 9.7 100.17   -7 Snow
22:00 0.2 -0.4 95 14 34 9.7 100.10     Snow
23:00 0.1 -0.4 96 14 34 4.8 100.08     Snow

Notes on Data Quality.

Legend

  • E = Estimated
  • M = Missing
  • NA = Not Available
Date modified: